Tucson, Arizona, United States (85701)
Lat: 32.22N, Lon: 110.93W
Wx Zone: AZZ504
Local Info
Past Weather Observations for Tuesday, May 26, 2015

NOTE: This archive is for the closest National Weather Service station to Tucson. Information may differ from the station used for current weather conditions.

Click here for Long-term Archive

Time Weather Temperature Dewpoint Humidity Pressure Winds Precip Visibility
23:58
Clear
72°F / 22°C 34°F / 1°C 25% 29.98 in
(1015 mb)
SW 6.9 mph
(SW 11 kph)
- 10SM
22:58
Clear
75°F / 24°C 36°F / 2°C 24% 29.98 in
(1015 mb)
SSW 2.3 mph
(SSW 4 kph)
- 10SM
21:58
Clear
79°F / 26°C 32°F / 0°C 18% 29.98 in
(1015 mb)
NW 8.1 mph
(NW 13 kph)
- 10SM
20:58
Clear
81°F / 27°C 28°F / -2°C 15% 29.95 in
(1014 mb)
W 5.8 mph
(W 9 kph)
- 10SM
19:58
Clear
84°F / 29°C 27°F / -3°C 12% 29.92 in
(1013 mb)
SSW 6.9 mph
(SSW 11 kph)
- 10SM
18:58
Clear
88°F / 31°C 23°F / -5°C 9% 29.89 in
(1012 mb)
W 9.2 mph
(W 15 kph)
- 10SM
17:58
Clear
90°F / 32°C 19°F / -7°C 7% 29.89 in
(1012 mb)
WNW 5.8 mph
(WNW 9 kph)
- 10SM
16:58
Clear
90°F / 32°C 21°F / -6°C 8% 29.89 in
(1012 mb)
Variable 4.6 mph
(Variable 7 kph)
- 10SM
15:58
Clear
90°F / 32°C 27°F / -3°C 10% 29.92 in
(1013 mb)
NNW 8.1 mph
(NNW 13 kph)
- 10SM
14:58
Clear
91°F / 33°C 23°F / -5°C 8% 29.92 in
(1013 mb)
Variable 5.8 mph
(Variable 9 kph)
- 10SM
14:30
Clear
90°F / 32°C 23°F / -5°C 9% 29.95 in
(1014 mb)
SW 12.7 mph
(SW 20 kph)
- 10SM
13:58
Clear
88°F / 31°C 28°F / -2°C 12% 29.95 in
(1014 mb)
Variable 3.5 mph
(Variable 6 kph)
- 10SM
12:58
Partly Cloudy
88°F / 31°C 34°F / 1°C 15% 29.98 in
(1015 mb)
SW 8.1 mph
(SW 13 kph)
- 10SM
11:58
Clear
84°F / 29°C 34°F / 1°C 16% 29.98 in
(1015 mb)
NNE 3.5 mph
(NNE 6 kph)
- 10SM
10:58
Clear
82°F / 28°C 36°F / 2°C 19% 30.01 in
(1016 mb)
NW 5.8 mph
(NW 9 kph)
- 10SM
09:58
Partly Cloudy
79°F / 26°C 37°F / 3°C 23% 30.01 in
(1016 mb)
Variable 3.5 mph
(Variable 6 kph)
- 10SM
08:58
Clear
77°F / 25°C 39°F / 4°C 26% 30.01 in
(1016 mb)
Variable 3.5 mph
(Variable 6 kph)
- 10SM
07:58
Clear
73°F / 23°C 37°F / 3°C 27% 30.04 in
(1017 mb)
SSE 6.9 mph
(SSE 11 kph)
- 9SM
06:58
Clear
68°F / 20°C 32°F / 0°C 26% 30.04 in
(1017 mb)
SSE 5.8 mph
(SSE 9 kph)
- 10SM
05:58
Clear
61°F / 16°C 30°F / -1°C 31% 30.01 in
(1016 mb)
SSE 5.8 mph
(SSE 9 kph)
- 10SM
04:58
Clear
61°F / 16°C 34°F / 1°C 36% 30.01 in
(1016 mb)
SE 5.8 mph
(SE 9 kph)
- 10SM
03:58
Clear
61°F / 16°C 36°F / 2°C 39% 29.98 in
(1015 mb)
SSE 6.9 mph
(SSE 11 kph)
- 10SM
02:58
Clear
63°F / 17°C 37°F / 3°C 39% 29.98 in
(1015 mb)
SSE 8.1 mph
(SSE 13 kph)
- 10SM
01:58
Clear
64°F / 18°C 36°F / 2°C 34% 29.98 in
(1015 mb)
S 6.9 mph
(S 11 kph)
- 10SM
00:58
Clear
68°F / 20°C 36°F / 2°C 30% 29.98 in
(1015 mb)
SSW 4.6 mph
(SSW 7 kph)
- 10SM
Time Weather Temperature Dewpoint Humidity Pressure Winds Precip Visibility


Weather for websites

WeatherForYou.com, LLC is not responsible for any damages or problems caused by this service. Current weather conditions are obtained from the closest station including government and personal stations which may have varying degrees of accuracy. Weather forecasts are derived from the NOAA NDFD. Like all things, this site belongs to Jesus Christ... He just trusts us to maintain it. If you have any questions or comments email webmaster@weatherforyou.com

Copyright © 2015, WeatherForYou.com LLC. All rights reserved.